[[{"header":{"parameterUnit":"m.s-1","parameterCategory":1,"la1":30.2991,"la2":30.254,"lo1":-89.0895,"lo2":-89.0444,"dy":0.0017,"dx":0.0017,"nx":28,"ny":28,"refTime":"2024-06-05T21:00:00:Z","depth":0,"parameterNumber":2,"parameterNumberName":"U-component_of_WINDS"},"data":[0,0,0,0,0,0,0,0,0,0,0,0,0,0,0,0,0,0,0,0,0,0,0,0,0,0,0,0,0,0,0,0,0,0,0,0,0,0,0,0,0,0,0,0,0,0,0,0,0,0,0,0,0,0,0,0,0,0,0.5594,0.5593,0,0.555,0.5549,0.5549,0.5446,0.5444,0.5442,0.544,0.5408,0.5409,0.541,0,0,0,0,0,0,0,0,0,0,0,0,0,0.5598,0.5598,0.5594,0.5593,0.5593,0.555,0.5549,0.5549,0.5447,0.5444,0.5442,0.5439,0.5407,0.5409,0.541,0,0,0,0,0,0,0,0,0,0,0,0,0,0.558,0.5598,0.5594,0.5536,0.5531,0.555,0.5549,0.5549,0.5447,0.5444,0.5441,0.5438,0.5407,0.5409,0.541,0.5486,0,0,0.5416,0.5416,0,0,0,0,0,0,0,0,0.5581,0.558,0.5545,0.554,0.5534,0.55,0.5539,0.5528,0.5448,0.548,0.544,0.5436,0.5442,0.5441,0.544,0.5485,0.5483,0.5416,0.5417,0.5418,0.5418,0,0,0,0,0,0,0,0.5582,0.5581,0.5577,0.5545,0.5538,0.5515,0.5509,0.5536,0.548,0.5477,0.5469,0.5464,0.5438,0.5439,0.5438,0.5483,0.5416,0.5417,0.5418,0.5419,0.5583,0.5586,0,0,0,0,0,0,0.559,0.5583,0.5578,0.5576,0.5549,0.5518,0.5511,0.5515,0.5479,0.547,0.5467,0.546,0.5437,0.5437,0.5437,0.552,0.5418,0.5419,0.542,0.558,0.5584,0.5587,0,0,0,0,0,0,0.5591,0.5591,0.558,0.5577,0.5574,0.5521,0.5526,0.5515,0.5515,0.5472,0.5463,0.5477,0.5435,0.5435,0.5473,0.5518,0.542,0.5422,0.5576,0.5581,0.5585,0.569,0,0,0,0,0,0,0.5591,0.5592,0.5618,0.5578,0.5574,0.5615,0.5529,0.5517,0.5517,0.5507,0.5479,0.5471,0.5432,0.5471,0.5474,0.5519,0.5423,0.5571,0.5578,0.5584,0.5683,0.5698,0.5712,0,0,0,0,0,0.5592,0.5653,0.562,0.562,0.5606,0.5617,0.5616,0.5566,0.5521,0.5548,0.552,0.5472,0.5512,0.5475,0.5479,0.5524,0.5568,0.5576,0.5583,0.5676,0.5695,0.5711,0,0,0,0,0,0,0.5707,0.5647,0.561,0.566,0.5643,0.56,0.5633,0.5588,0.5588,0.5579,0.552,0.5515,0.5561,0.5546,0.5507,0.5593,0.5532,0.5541,0.5602,0.5619,0.5634,0.5637,0.5424,0,0,0,0,0,0.5736,0.5747,0.5696,0.5746,0.5739,0.5687,0.5691,0.5652,0.5635,0.563,0.5604,0.5592,0.5601,0.5609,0.5616,0.5679,0.5671,0.5712,0.5726,0.5738,0.5747,0.5776,0.5793,0.5612,0.5611,0.5611,0,0,0.5801,0.577,0.5782,0.5768,0.5751,0.5765,0.5683,0.5703,0.5714,0.5634,0.5667,0.5647,0.563,0.568,0.5701,0.5669,0.5794,0.5748,0.5758,0.576,0.5786,0.5803,0.5818,0.5617,0.5616,0.5615,0,0,0.5926,0.5903,0.5939,0.5922,0.5895,0.5859,0.5868,0.583,0.5812,0.5842,0.5781,0.5795,0.5813,0.5802,0.5799,0.5912,0.5868,0.5916,0.5993,0.6022,0.6037,0.6049,0.6089,0.6103,0.5924,0.5925,0.5925,0,0.6011,0.6027,0.5965,0.5987,0.5982,0.5904,0.5941,0.5929,0.5908,0.5907,0.5871,0.5887,0.5871,0.5915,0.5942,0.5943,0.5951,0.592,0.6039,0.6051,0.6061,0.6098,0.6114,0.5931,0.593,0.5929,0.5929,0,0.6131,0.6143,0.6177,0.6151,0.615,0.618,0.6125,0.6131,0.6092,0.606,0.6092,0.6067,0.6066,0.6073,0.6038,0.6112,0.6093,0.6049,0.5986,0.6086,0.6119,0.6133,0.5939,0.5937,0.5935,0.5934,0,0,0.6332,0.6266,0.628,0.6265,0.6227,0.6237,0.6262,0.6255,0.6261,0.6248,0.6269,0.6282,0.6239,0.6235,0.6197,0.6223,0.6312,0.6175,0.6173,0.6201,0.639,0.6424,0.6442,0.6281,0.6283,0.6285,0.6391,0,0.6448,0.6484,0.6427,0.6477,0.6487,0.641,0.6432,0.6412,0.6382,0.6388,0.6356,0.6366,0.6309,0.6305,0.6327,0.6297,0.6349,0.6288,0.6301,0.6303,0.6309,0.646,0.6497,0.6598,0.6404,0.6407,0.6408,0,0.6589,0.6575,0.6625,0.6579,0.6581,0.6602,0.6588,0.6594,0.6569,0.6545,0.6538,0.649,0.6513,0.645,0.6481,0.6441,0.6442,0.6428,0.643,0.6431,0.6363,0.6465,0.663,0.6645,0.6429,0.6427,0.6426,0,0.6729,0.6724,0.6751,0.6742,0.6689,0.6705,0.6684,0.6655,0.6653,0.6643,0.6641,0.6635,0.6632,0.663,0.6581,0.654,0.6618,0.6552,0.6601,0.6602,0.6623,0.6623,0.6791,0.6623,0.6623,0.6622,0.6622,0,0.6865,0.6898,0.6813,0.6831,0.6865,0.6799,0.6836,0.6808,0.6782,0.6794,0.6728,0.6742,0.6677,0.6683,0.6646,0.6677,0.6677,0.6659,0.6649,0.6665,0.6668,0.6667,0.6659,0.6626,0.6626,0.6625,0.6624,0,0.7028,0.6972,0.6997,0.6942,0.6929,0.6957,0.6911,0.6926,0.6889,0.6905,0.6905,0.6849,0.6853,0.6803,0.68,0.6774,0.6822,0.68,0.6829,0.6822,0.6873,0.6869,0.7048,0.7068,0.6888,0.6889,0.6891,0,0.7119,0.7142,0.7087,0.7087,0.7068,0.7071,0.7066,0.7002,0.7,0.697,0.6989,0.6985,0.698,0.6989,0.6951,0.6946,0.6923,0.6986,0.6923,0.6937,0.6924,0.6923,0.6925,0.7001,0.7003,0.7005,0.7006,0,0.7286,0.7255,0.7249,0.7232,0.7226,0.7212,0.7193,0.7198,0.7127,0.7129,0.7128,0.7123,0.7115,0.7113,0.71,0.7081,0.7033,0.7025,0.7036,0.7054,0.707,0.7061,0.6866,0.7023,0.7021,0.702,0.7019,0.7018,0.7415,0.743,0.7392,0.7387,0.7364,0.7346,0.7356,0.7317,0.7314,0.7299,0.7262,0.7268,0.7239,0.7215,0.72,0.7205,0.7175,0.7191,0.7195,0.7201,0.7209,0.7067,0.7203,0.7202,0.7202,0.7201,0.7201,0,0.7578,0.7548,0.7543,0.7515,0.751,0.7458,0.7433,0.7433,0.7438,0.7413,0.7406,0.7405,0.7401,0.7359,0.735,0.7362,0.734,0.7363,0.7362,0.7358,0.7238,0.7228,0.7381,0.7381,0.7381,0.7381,0.7381,0.7381,0.7662,0.7684,0.7648,0.7657,0.7628,0.7629,0.7619,0.7602,0.7581,0.7581,0.7575,0.7546,0.7514,0.7501,0.7496,0.7483,0.7484,0.7515,0.7495,0.7384,0.7367,0.735,0.7341,0.7515,0.7515,0.7615,0.7616,0.7617]},{"header":{"parameterUnit":"m.s-1","parameterCategory":1,"la1":30.2991,"la2":30.254,"lo1":-89.0895,"lo2":-89.0444,"dy":0.0017,"dx":0.0017,"nx":28,"ny":28,"refTime":"2024-06-05T21:00:00:Z","depth":0,"parameterNumber":3,"parameterNumberName":"V-component_of_WINDS"},"data":[0,0,0,0,0,0,0,0,0,0,0,0,0,0,0,0,0,0,0,0,0,0,0,0,0,0,0,0,0,0,0,0,0,0,0,0,0,0,0,0,0,0,0,0,0,0,0,0,0,0,0,0,0,0,0,0,0,0,1.1305,1.1307,0,1.143,1.1432,1.1433,1.1432,1.143,1.1428,1.1427,1.1552,1.1557,1.1562,0,0,0,0,0,0,0,0,0,0,0,0,0,1.106,1.1065,1.1305,1.1307,1.1309,1.143,1.1432,1.1433,1.1432,1.143,1.1428,1.1426,1.1551,1.1556,1.1562,0,0,0,0,0,0,0,0,0,0,0,0,0,1.1174,1.1066,1.1305,1.1322,1.1325,1.143,1.1432,1.1434,1.1432,1.143,1.1427,1.1425,1.1549,1.1556,1.1563,1.1658,0,0,1.1585,1.1588,0,0,0,0,0,0,0,0,1.1168,1.1183,1.1318,1.1321,1.1325,1.1413,1.1391,1.1509,1.1433,1.1392,1.1427,1.1424,1.1508,1.1518,1.1547,1.1664,1.1669,1.1586,1.159,1.1594,1.1596,0,0,0,0,0,0,0,1.116,1.1178,1.1355,1.132,1.1324,1.1322,1.1336,1.1414,1.1462,1.1395,1.1395,1.141,1.1509,1.154,1.155,1.1671,1.1586,1.1592,1.1597,1.16,1.1867,1.187,0,0,0,0,0,0,1.1149,1.1171,1.1351,1.1358,1.1239,1.1329,1.1344,1.1387,1.1461,1.147,1.1412,1.1409,1.1529,1.1541,1.1554,1.1668,1.1593,1.16,1.1605,1.1864,1.1868,1.1871,0,0,0,0,0,0,1.1144,1.1165,1.1346,1.1265,1.1288,1.1335,1.1384,1.1391,1.1422,1.1474,1.1482,1.1435,1.1527,1.1544,1.1631,1.1672,1.1604,1.161,1.1861,1.1865,1.1869,1.1897,0,0,0,0,0,0,1.1137,1.1163,1.1201,1.1266,1.1292,1.1422,1.1387,1.1395,1.1435,1.1433,1.1498,1.1506,1.1526,1.162,1.1639,1.1681,1.1616,1.1858,1.1863,1.1868,1.1893,1.1901,1.1909,0,0,0,0,0,1.1128,1.1204,1.1203,1.1225,1.1341,1.1425,1.144,1.1462,1.1438,1.1476,1.1508,1.1504,1.1665,1.1629,1.165,1.1695,1.1855,1.1862,1.1868,1.1889,1.19,1.1909,0,0,0,0,0,0,1.1143,1.1213,1.1213,1.1313,1.1363,1.1424,1.1473,1.1473,1.1531,1.1526,1.1551,1.1565,1.1652,1.1682,1.1642,1.1788,1.1757,1.1767,1.1766,1.1777,1.1785,1.1775,1.1622,0,0,0,0,0,1.1158,1.1222,1.1279,1.1361,1.1387,1.1425,1.1463,1.1475,1.1528,1.1549,1.1588,1.1638,1.17,1.174,1.18,1.1896,1.1909,1.1937,1.1945,1.1952,1.1961,1.2011,1.2023,1.1891,1.1891,1.1891,0,0,1.119,1.1236,1.1275,1.1365,1.1406,1.1469,1.1443,1.1512,1.1559,1.1559,1.1644,1.1674,1.1731,1.1823,1.1865,1.1851,1.2,1.196,1.1965,1.197,1.2018,1.2031,1.2042,1.1895,1.1894,1.1893,0,0,1.1279,1.1322,1.1394,1.1434,1.1496,1.152,1.1537,1.1598,1.1618,1.1704,1.1704,1.1759,1.1865,1.1905,1.1939,1.204,1.2037,1.2058,1.2101,1.215,1.216,1.2169,1.2203,1.2215,1.2067,1.2067,1.2067,0,1.1311,1.1408,1.1431,1.1499,1.1538,1.1541,1.1612,1.165,1.1727,1.1753,1.1735,1.1866,1.1905,1.2005,1.2029,1.2057,1.2075,1.2051,1.2157,1.2167,1.2176,1.2208,1.2221,1.2069,1.2069,1.2068,1.2068,0,1.1442,1.1509,1.156,1.1634,1.1678,1.1748,1.1779,1.1821,1.1828,1.1854,1.1938,1.1985,1.2052,1.2076,1.2085,1.2176,1.2165,1.2152,1.2121,1.219,1.2221,1.2233,1.2072,1.2071,1.207,1.207,0,0,1.1547,1.1631,1.1649,1.1682,1.1748,1.1799,1.1867,1.1933,1.1967,1.2019,1.2076,1.2163,1.2151,1.2189,1.2202,1.2245,1.2318,1.2226,1.2228,1.224,1.2418,1.2426,1.2441,1.2316,1.2319,1.2321,1.2412,0,1.1643,1.1766,1.1786,1.1893,1.1954,1.1955,1.2014,1.206,1.2084,1.2137,1.2164,1.2225,1.2205,1.2228,1.227,1.23,1.2354,1.2294,1.2367,1.2369,1.2352,1.2457,1.2468,1.2552,1.2425,1.2427,1.2428,0,1.1772,1.1827,1.194,1.1995,1.2021,1.2074,1.2134,1.2186,1.2236,1.2251,1.2292,1.2299,1.2366,1.2331,1.2424,1.2382,1.2413,1.2431,1.2435,1.2442,1.2403,1.2466,1.258,1.2592,1.2448,1.2446,1.2445,0,1.1835,1.1937,1.2017,1.2045,1.2112,1.2148,1.2177,1.2225,1.2263,1.2315,1.2338,1.2397,1.243,1.2474,1.2495,1.2468,1.2585,1.2552,1.2597,1.2596,1.2622,1.262,1.2741,1.2643,1.2643,1.2643,1.2642,0,1.1939,1.2007,1.2046,1.2095,1.2171,1.2192,1.2265,1.2293,1.2335,1.2388,1.2392,1.2441,1.2467,1.2518,1.2535,1.2607,1.2622,1.2634,1.2637,1.2633,1.2631,1.2653,1.2648,1.2646,1.2645,1.2644,1.2644,0,1.2022,1.2051,1.2138,1.2194,1.2209,1.2262,1.2308,1.2354,1.2377,1.2444,1.246,1.2497,1.2557,1.2583,1.2658,1.2668,1.275,1.275,1.2734,1.2735,1.2777,1.2772,1.2916,1.2935,1.2825,1.2826,1.2827,0,1.2087,1.2139,1.22,1.2236,1.2266,1.2324,1.2362,1.2384,1.2422,1.2481,1.252,1.258,1.263,1.2727,1.2759,1.2815,1.2815,1.2861,1.2823,1.2816,1.2813,1.2809,1.2813,1.2868,1.2869,1.287,1.2871,0,1.2197,1.2208,1.2263,1.2322,1.2367,1.2415,1.2461,1.2489,1.2518,1.256,1.2623,1.2661,1.2736,1.2796,1.2853,1.288,1.2879,1.2882,1.2895,1.2891,1.2879,1.2884,1.2751,1.2879,1.2878,1.2877,1.2877,1.2877,1.2272,1.2318,1.2367,1.2427,1.2464,1.2506,1.2551,1.258,1.2633,1.2696,1.2705,1.2771,1.2816,1.2893,1.2922,1.2972,1.296,1.298,1.2984,1.2988,1.299,1.2871,1.2983,1.2983,1.2982,1.2982,1.2982,0,1.2381,1.2412,1.2467,1.2531,1.2578,1.2573,1.2623,1.2661,1.272,1.2763,1.2811,1.288,1.2937,1.2972,1.3028,1.3061,1.3062,1.3075,1.3073,1.3078,1.2999,1.2981,1.3074,1.3074,1.3074,1.3074,1.3074,1.3073,1.2443,1.252,1.2536,1.2629,1.2659,1.2724,1.2753,1.279,1.2824,1.2902,1.2949,1.2972,1.301,1.3069,1.3119,1.3128,1.3147,1.3161,1.3169,1.3094,1.3084,1.3075,1.3059,1.3166,1.3166,1.3244,1.3245,1.3245]}]]